Location: Neuvy Saint Sepulchre
(46.5953°N, 1.8122°E)
Time: 13:02:35
(UTC+02:00)

ISS - Pass Details

Date: 22 September 2022
Orbit: 414 x 417 km, 51.6° (Epoch: 01 October)

Event Time Altitude Azimuth Distance (km) Brightness Sun altitude
Rises 21:18:54 0° 275° (W) 2,361 1.7 -15.8°
Reaches altitude 10° 21:21:07 10° 285° (WNW) 1,499 0.4 -16.1°
Maximum altitude 21:24:15 35° 353° (N) 702 -2.4 -16.6°
Enters shadow 21:25:50 22° 44° (NE) 973 -2.2 -16.9°
